Lexington Weather

Lexington, Massachusetts, USA

48°F
9/19/2020 9:08am 
  • Lexington Conditions: Clear
  • Temperature: 47.7°F / 8.7°CWarmer 3.8°F than last hour.
  • Dew Point: 36.9°FIncreased 0.8°Fsince last hour.
  • Relative Humidity: 66%Decreased 8.0% since last hour.
  • Wind: Wind from ENE ENE 2 mph, 10-min avg: 1 mph, gust: 4 mph
  • Barometer: 30.27 inRising 0.02  inHg/hr Rising Slowly
  • Visibility: 10 miles
  • Rain Today: 0.00 in
  •   
Southeast Middlesex County - Special Weather Statement
 - SEE ALL NEARBY ALERTS -

Regional Weather Roundup
for Boston / Norton, MA

        
000
ASUS41 KBOX 170704
RWRBOX

REGIONAL WEATHER ROUNDUP
NATIONAL WEATHER SERVICE BOSTON/NORTON MA
300 AM EDT THU SEP 17 2020

NOTE:  "FAIR" INDICATES FEW OR NO CLOUDS BELOW 12,000 FEET WITH NO 
SIGNIFICANT WEATHER AND/OR OBSTRUCTIONS TO VISIBILITY.

MAZALL-170800-
EASTERN MASSACHUSETTS
  
CITY           SKY/WX    TMP DP  RH WIND       PRES   REMARKS
BOSTON         PTCLDY    61  57  87 SW12      30.06S                  
BEVERLY        CLEAR     60  57  89 SW8       30.04F                  
LAWRENCE       CLEAR     59  55  87 SW6       30.06F                  
BEDFORD        CLEAR     57  55  93 CALM      30.04F                  
BLUE HILL        N/A     60  57  89 SW14G22   30.05F                  
NORWOOD        PTCLDY    61  56  83 SW3       30.05F                  
MARSHFIELD     CLOUDY    64  61  88 SW5       30.06S                  
PLYMOUTH       CLEAR     63  61  93 SW7       30.06F                  
TAUNTON        CLEAR     61  57  87 CALM      30.06F                  
NEW BEDFORD    MOCLDY    65  63  93 SW6       30.06F                  
$$

MAZALL-170800-
CAPE COD AND THE ISLANDS
  
CITY           SKY/WX    TMP DP  RH WIND       PRES   REMARKS
FALMOUTH       PTCLDY    64  63  94 SW12      30.08F                  
HYANNIS        CLEAR     68  64  87 SW13      30.06F                  
CHATHAM        CLEAR     66  63  90 S6        30.09F                  
PROVINCETOWN   CLEAR     64  62  93 S12       30.07F                  
NANTUCKET      LGT RAIN  68  63  84 SW9       30.10F                  
MARTHAS VNYRD  CLEAR     62  61  96 SW5       30.09F                  
$$
 
MAZALL-170800-
CENTRAL AND WESTERN MASSACHUSETTS
  
CITY           SKY/WX    TMP DP  RH WIND       PRES   REMARKS
WORCESTER      CLEAR     58  53  84 SW13      30.06S                  
FITCHBURG      CLEAR     58  53  84 CALM      30.04F                  
ORANGE         CLEAR     55  53  93 SW5       30.06F                  
SPRINGFIELD    CLEAR     53  53  97 S6        30.05S                  
WESTFIELD      CLEAR     55  54  96 S7        30.05F                  
NORTH ADAMS    CLEAR     54  50  86 VRB3      30.04F                  
PITTSFIELD     CLEAR     58  52  80 SW6       30.04F                  
$$
 
RIZALL-170800-
RHODE ISLAND
  
CITY           SKY/WX    TMP DP  RH WIND       PRES   REMARKS
PROVIDENCE     CLEAR     60  59  96 SW5       30.08S                  
NEWPORT        MOCLDY    69  63  81 SW8       30.07F                  
BLOCK ISLAND   PTCLDY    66  60  81 SW14      30.09F                  
SMITHFIELD     CLEAR     60  60 100 SW6       30.07F                  
WESTERLY       CLEAR     66  61  84 SW7       30.08F                  
$$
 
CTZALL-170800-
CONNECTICUT
  
CITY           SKY/WX    TMP DP  RH WIND       PRES   REMARKS
BRADLEY INTL   MOCLDY    56  54  93 S3        30.06F                  
HARTFORD       MOCLDY    62  55  77 S7        30.06F                  
BRIDGEPORT     MOCLDY    69  59  70 SW12      30.07F                  
DANBURY        CLEAR     53  52  96 CALM      30.09F                  
GROTON         PTCLDY    67  57  70 W12       30.07F                  
NEW HAVEN      CLOUDY    70  59  68 SW8       30.08F                  
CHESTER        NOT AVBL                                               
MERIDEN        CLOUDY    57  54  89 CALM      30.07F                  
WILLIMANTIC    CLEAR     50  49  96 CALM      30.08F FOG              
OXFORD         MOCLDY    58  56  93 SW6       30.09F                  
$$

MEZ002-015-021-024-NHZ003-005-008-011-012-014-VTZ005-008-170800-
NORTHERN NEW ENGLAND
  
CITY           SKY/WX    TMP DP  RH WIND       PRES   REMARKS
PORTLAND ME    CLEAR     61  55  81 SW9       29.99F                  
BANGOR ME      CLEAR     59  53  80 S9        29.94F                  
CONCORD NH     CLEAR     55  51  86 S7        30.01F                  
MANCHESTER NH  CLEAR     60  53  77 S5        30.01F                  
NASHUA NH      CLEAR     59  57  93 CALM      30.04F                  
PORTSMOUTH NH  PTCLDY    58  53  83 S10       30.01F                  
JAFFREY NH     CLEAR     57  53  86 SW9       30.04F                  
KEENE NH       FOG       50  50 100 CALM      30.04F VSB 3/4          
BURLINGTON VT  MOCLDY    62  49  62 S17G25    29.94S                  
MT. WASHINGTON MOCLDY    43  34  70 W51G59      N/A  WCI  30          
$$

NYZ052-076-170800-
EASTERN NEW YORK
  
CITY           SKY/WX    TMP DP  RH WIND       PRES   REMARKS
ALBANY         MOCLDY    50  50 100 S3        30.03F                  
NEW YORK CITY  CLOUDY    68  58  70 SW9       30.07F                  
$$
 
ANZALL-170800-
MARINE OBSERVATIONS
  
STATION/POSITION TIME  TEMP    WIND        PRES    VSBY  WAVE
                       AIR SEA DIR/SP/G                  HT/PER
                 (UTC) (F)     (DEG/KT/KT) (MB)    (MI)  (FT/S)
BOSTON BUOY      0650   63 64  180/  8/ 10 1016.8F         2/11
BUZZARDS BAY     0600          200/ 16/ 16 1019.6F
NANTUCKET SOUND  0640      69  210/ 12/ 16   N/A
MASS BAY-STELLWA 0604   63     240/ 14/ 16 1015.7F  1 7/8  3/ 4
ISLE OF SHOALS   NOT AVBL
S OF BLOCK IS    0626      70                N/A           4/12
$$

......................KEY.........................
  SKY/WX - SKY CONDITION/PRESENT WEATHER
  TMP    - TEMPERATURE IN FAHRENHEIT
  DWPT   - DEWPOINT IN FAHRENHEIT
  RH     - RELATIVE HUMIDITY IN PERCENT
  WIND   - DIRECTION AND SPEED IN MPH
  PRES   - MEAN SEA LEVEL PRESSURE IN INCHES OF HG
  WCI    - WIND CHILL INDEX
  VSB    - VISIBILITY IN MILES
  HX     - HEAT INDEX
  TC     - TEMPERATURE IN CELSIUS
  VRB    - VARIABLE WIND DIRECTION
  N/A    - NOT AVAILABLE
  
      

Other recent Regional Weather Roundups

Sat Sep 19, 8:04am

Sat Sep 19, 7:04am

Sat Sep 19, 6:04am

Sat Sep 19, 5:04am

Sat Sep 19, 4:04am

Sat Sep 19, 3:04am

Sat Sep 19, 2:04am

Sat Sep 19, 1:04am

Sat Sep 19, 12:04am

Fri Sep 18, 11:05pm

Fri Sep 18, 10:04pm

Fri Sep 18, 9:04pm

Fri Sep 18, 8:04pm

Fri Sep 18, 7:04pm

Fri Sep 18, 6:04pm

Fri Sep 18, 5:05pm

Fri Sep 18, 4:04pm

Fri Sep 18, 3:05pm

Fri Sep 18, 2:04pm

Fri Sep 18, 1:04pm

Fri Sep 18, 12:04pm

Fri Sep 18, 11:05am

Fri Sep 18, 10:05am

Fri Sep 18, 9:04am

Fri Sep 18, 8:04am

Fri Sep 18, 7:04am

Fri Sep 18, 6:04am

Fri Sep 18, 5:04am

Fri Sep 18, 4:04am

Fri Sep 18, 3:04am

Fri Sep 18, 2:04am

Fri Sep 18, 1:04am

Fri Sep 18, 12:04am

Thu Sep 17, 11:05pm

Thu Sep 17, 10:04pm

Thu Sep 17, 9:04pm

Thu Sep 17, 8:05pm

Thu Sep 17, 7:04pm

Thu Sep 17, 6:04pm

Thu Sep 17, 5:04pm

Thu Sep 17, 4:04pm

Thu Sep 17, 3:05pm

Thu Sep 17, 2:04pm

Thu Sep 17, 1:04pm

Thu Sep 17, 12:04pm

Thu Sep 17, 11:04am

Thu Sep 17, 10:04am

Thu Sep 17, 9:04am

Thu Sep 17, 8:04am

Thu Sep 17, 7:04am

Thu Sep 17, 6:04am

Thu Sep 17, 5:04am

Thu Sep 17, 4:04am

Thu Sep 17, 2:05am

Thu Sep 17, 1:05am

Thu Sep 17, 12:04am

Wed Sep 16, 11:04pm

Wed Sep 16, 10:04pm

Wed Sep 16, 9:04pm

Wed Sep 16, 8:05pm

Wed Sep 16, 7:04pm

Wed Sep 16, 6:04pm

Wed Sep 16, 5:04pm

Wed Sep 16, 4:04pm

Wed Sep 16, 3:04pm

Wed Sep 16, 2:04pm

Wed Sep 16, 1:04pm

Wed Sep 16, 12:04pm

Wed Sep 16, 11:04am

Wed Sep 16, 10:04am

Wed Sep 16, 9:04am

Wed Sep 16, 8:04am

Wed Sep 16, 7:04am

Wed Sep 16, 6:04am

Wed Sep 16, 5:04am

Wed Sep 16, 4:04am

Wed Sep 16, 3:04am

Wed Sep 16, 2:04am

Wed Sep 16, 1:04am

Wed Sep 16, 12:05am

Tue Sep 15, 11:04pm

Tue Sep 15, 10:04pm

Tue Sep 15, 9:04pm

Tue Sep 15, 8:04pm

Tue Sep 15, 7:04pm

Tue Sep 15, 6:04pm

Tue Sep 15, 5:04pm

Tue Sep 15, 4:05pm

Tue Sep 15, 3:04pm

Tue Sep 15, 2:04pm

Tue Sep 15, 1:04pm

Tue Sep 15, 12:04pm

Tue Sep 15, 11:04am

Tue Sep 15, 10:04am

Tue Sep 15, 9:04am

Tue Sep 15, 8:04am

Tue Sep 15, 7:04am

Tue Sep 15, 6:04am

Tue Sep 15, 5:04am

Tue Sep 15, 4:04am

Tue Sep 15, 3:04am

Tue Sep 15, 2:04am

Tue Sep 15, 1:04am

Tue Sep 15, 12:05am

Mon Sep 14, 11:04pm

Mon Sep 14, 10:04pm

Mon Sep 14, 9:04pm

Mon Sep 14, 8:04pm

Mon Sep 14, 7:04pm

Mon Sep 14, 6:04pm

Mon Sep 14, 5:04pm

Mon Sep 14, 4:05pm

Mon Sep 14, 3:04pm

Mon Sep 14, 2:05pm

Mon Sep 14, 1:04pm

Mon Sep 14, 12:04pm

Mon Sep 14, 11:04am

Mon Sep 14, 10:05am

Mon Sep 14, 9:04am

Mon Sep 14, 8:04am

Mon Sep 14, 7:04am

Mon Sep 14, 6:04am

Mon Sep 14, 5:04am

Mon Sep 14, 4:04am

Mon Sep 14, 3:04am

Mon Sep 14, 2:04am

Mon Sep 14, 1:04am

Mon Sep 14, 12:04am

Sun Sep 13, 11:05pm

Sun Sep 13, 10:04pm

Sun Sep 13, 9:04pm

Sun Sep 13, 8:04pm

Sun Sep 13, 7:05pm

Sun Sep 13, 6:05pm

Sun Sep 13, 5:05pm

Sun Sep 13, 4:04pm

Sun Sep 13, 3:04pm

Sun Sep 13, 2:04pm

Sun Sep 13, 1:04pm

Sun Sep 13, 12:04pm

Sun Sep 13, 11:05am

Sun Sep 13, 10:04am

Sun Sep 13, 9:04am

Sun Sep 13, 8:04am

Sun Sep 13, 7:04am

Sun Sep 13, 6:04am

Sun Sep 13, 5:04am

Sun Sep 13, 4:04am

Sun Sep 13, 3:04am

Sun Sep 13, 2:04am

Sun Sep 13, 1:04am

Sun Sep 13, 12:04am

Sat Sep 12, 11:04pm

Sat Sep 12, 10:04pm

Sat Sep 12, 9:04pm

Sat Sep 12, 8:04pm

Sat Sep 12, 7:05pm

Sat Sep 12, 6:04pm

Sat Sep 12, 5:04pm

Sat Sep 12, 4:05pm

Sat Sep 12, 3:04pm

Sat Sep 12, 2:04pm

Sat Sep 12, 1:05pm

Sat Sep 12, 12:04pm

Sat Sep 12, 11:04am

Sat Sep 12, 10:04am

Sat Sep 12, 9:04am

Meta data:

ID: d806b5d5-6c55-4818-8e38-6d766324b47e
Link: https://api.weather.gov/products/d806b5d5-6c55-4818-8e38-6d766324b47e